カタログに戻る

BEIJING-3C 04

運用中科学SSO
NORAD 59808·PAYLOAD·🇨🇳 China
この衛星名は、まだ公式ソースで確認されていません。

打ち上げ May 20, 2024 から Taiyuan Satellite Launch Center

Loading…

次のパス (今後24時間)

TLE

最新Source: Space-Track

元期: Sep 14, 2026, 23:18 UTC

1 59808U 24094D   26257.97097589  .00004871  00000-0  24983-3 0  9994
2 59808  97.3758 326.1795 0003294   7.9998 352.1288 15.16996802128764

AllMySatでBEIJING-3C 04をリアルタイム追跡

Download on the App Store